• în România
  • Lista ţărilor
  • Pe 7 zile
  • Temperatura apei
  • Hartă satelitară
  • Meteo pe hartă
  • Widget-uri
  • user-avatar
    Intrare

    Meteo pe oră la Algiers

    Astăzi, 22 Februarie, Miercuri

    Timp Temperatura Precipitaţii Vânt Presiune Umiditate
    00:00 +12°C° 0 mm 5 m/s 752 mmHg 61%
    01:00 +12°C° 0 mm 5 m/s 752 mmHg 62%
    02:00 +12°C° 0 mm 5 m/s 752 mmHg 64%
    03:00 +12°C° 0 mm 5 m/s 752 mmHg 66%
    04:00 +12°C° 0 mm 5 m/s 752 mmHg 66%
    05:00 +12°C° 0 mm 4 m/s 752 mmHg 66%
    06:00 +12°C° 0 mm 4 m/s 752 mmHg 66%
    07:00 +14°C° 0 mm 4 m/s 752 mmHg 64%
    08:00 +17°C° 0 mm 4 m/s 752 mmHg 62%
    09:00 +19°C° 0 mm 4 m/s 752 mmHg 60%
    10:00 +21°C° 0 mm 4 m/s 752 mmHg 54%
    11:00 +23°C° 0 mm 4 m/s 752 mmHg 49%
    12:00 +26°C° 0 mm 4 m/s 751 mmHg 43%
    13:00 +26°C° 0 mm 4 m/s 751 mmHg 43%
    14:00 +26°C° 0 mm 4 m/s 750 mmHg 43%
    15:00 +26°C° 0 mm 5 m/s 750 mmHg 43%
    16:00 +23°C° 0 mm 5 m/s 750 mmHg 51%
    17:00 +20°C° 0 mm 5 m/s 750 mmHg 58%
    18:00 +16°C° 0 mm 5 m/s 750 mmHg 66%
    19:00 +16°C° 0 mm 5 m/s 750 mmHg 62%
    20:00 +16°C° 0 mm 5 m/s 750 mmHg 58%
    21:00 +18°C° 0 mm 4 m/s 751 mmHg 54%
    22:00 +17°C° 0,1 mm 4 m/s 750 mmHg 57%
    23:00 +17°C° 0,1 mm 4 m/s 750 mmHg 59%

    Mâine, 23 Februarie, Joi

    Timp Temperatura Precipitaţii Vânt Presiune Umiditate
    00:00 +17°C° 0,1 mm 4 m/s 750 mmHg 62%
    01:00 +15°C° 0,1 mm 4 m/s 750 mmHg 63%
    02:00 +15°C° 0,1 mm 4 m/s 750 mmHg 65%
    03:00 +15°C° 0,1 mm 4 m/s 749 mmHg 67%
    04:00 +15°C° 0,1 mm 4 m/s 749 mmHg 67%
    05:00 +14°C° 0,1 mm 4 m/s 749 mmHg 68%
    06:00 +14°C° 0,1 mm 4 m/s 749 mmHg 69%
    07:00 +15°C° 0,3 mm 4 m/s 749 mmHg 68%
    08:00 +18°C° 0,3 mm 4 m/s 749 mmHg 66%
    09:00 +19°C° 0,3 mm 4 m/s 748 mmHg 65%
    10:00 +21°C° 0,4 mm 3 m/s 748 mmHg 60%
    11:00 +22°C° 0,4 mm 3 m/s 748 mmHg 54%
    12:00 +25°C° 0,4 mm 3 m/s 748 mmHg 49%
    13:00 +25°C° 0,4 mm 3 m/s 747 mmHg 48%
    14:00 +25°C° 0,4 mm 4 m/s 747 mmHg 47%
    15:00 +26°C° 0,4 mm 5 m/s 746 mmHg 46%
    16:00 +23°C° 0,3 mm 5 m/s 746 mmHg 52%
    17:00 +21°C° 0,3 mm 5 m/s 745 mmHg 57%
    18:00 +17°C° 0,3 mm 5 m/s 745 mmHg 62%
    19:00 +17°C° 0,5 mm 5 m/s 745 mmHg 66%
    20:00 +17°C° 0,5 mm 4 m/s 745 mmHg 69%
    21:00 +15°C° 0,5 mm 4 m/s 745 mmHg 73%
    22:00 +14°C° 0,2 mm 3 m/s 745 mmHg 73%
    23:00 +14°C° 0,2 mm 3 m/s 745 mmHg 73%

    Poimâine, 24 Februarie, Vineri

    Timp Temperatura Precipitaţii Vânt Presiune Umiditate
    00:00 +13°C° 0,2 mm 3 m/s 744 mmHg 73%
    01:00 +13°C° 0,1 mm 3 m/s 744 mmHg 78%
    02:00 +12°C° 0,1 mm 3 m/s 744 mmHg 82%
    03:00 +12°C° 0,1 mm 3 m/s 744 mmHg 86%
    04:00 +11°C° 0,1 mm 4 m/s 745 mmHg 88%
    05:00 +11°C° 0,1 mm 4 m/s 745 mmHg 91%
    06:00 +10°C° 0,1 mm 5 m/s 745 mmHg 93%
    07:00 +12°C° 0,1 mm 5 m/s 746 mmHg 91%
    08:00 +13°C° 0,1 mm 5 m/s 746 mmHg 88%
    09:00 +14°C° 0,1 mm 5 m/s 747 mmHg 86%
    10:00 +16°C° 0,3 mm 5 m/s 747 mmHg 80%
    11:00 +17°C° 0,3 mm 5 m/s 747 mmHg 74%
    12:00 +19°C° 0,3 mm 5 m/s 747 mmHg 68%
    13:00 +19°C° 0,2 mm 5 m/s 747 mmHg 68%
    14:00 +19°C° 0,2 mm 6 m/s 747 mmHg 67%
    15:00 +19°C° 0,2 mm 6 m/s 746 mmHg 67%
    16:00 +16°C° 0,1 mm 5 m/s 747 mmHg 76%
    17:00 +15°C° 0,1 mm 5 m/s 747 mmHg 85%
    18:00 +13°C° 0,1 mm 5 m/s 748 mmHg 93%
    19:00 +13°C° 0,6 mm 4 m/s 749 mmHg 94%
    20:00 +13°C° 0,6 mm 3 m/s 749 mmHg 95%
    21:00 +13°C° 0,6 mm 3 m/s 750 mmHg 95%
    22:00 +13°C° 0,2 mm 3 m/s 750 mmHg 95%
    23:00 +12°C° 0,2 mm 3 m/s 750 mmHg 95%

    25 Februarie, Sâmbătă

    Timp Temperatura Precipitaţii Vânt Presiune Umiditate
    00:00 +12°C° 0,2 mm 3 m/s 750 mmHg 95%
    01:00 +12°C° 0,3 mm 3 m/s 750 mmHg 95%
    02:00 +12°C° 0,3 mm 3 m/s 750 mmHg 96%
    03:00 +12°C° 0,3 mm 4 m/s 750 mmHg 96%
    04:00 +12°C° 0,2 mm 4 m/s 751 mmHg 97%
    05:00 +12°C° 0,2 mm 3 m/s 751 mmHg 97%
    06:00 +12°C° 0,2 mm 3 m/s 751 mmHg 97%
    07:00 +13°C° 0 mm 3 m/s 752 mmHg 94%
    08:00 +13°C° 0 mm 3 m/s 752 mmHg 91%
    09:00 +15°C° 0 mm 2 m/s 753 mmHg 87%
    10:00 +14°C° 0 mm 3 m/s 753 mmHg 82%
    11:00 +16°C° 0 mm 3 m/s 753 mmHg 77%
    12:00 +17°C° 0 mm 3 m/s 753 mmHg 72%
    13:00 +17°C° 0 mm 3 m/s 752 mmHg 71%
    14:00 +17°C° 0 mm 3 m/s 752 mmHg 71%
    15:00 +17°C° 0 mm 3 m/s 752 mmHg 70%
    16:00 +16°C° 0 mm 3 m/s 752 mmHg 77%
    17:00 +13°C° 0 mm 3 m/s 752 mmHg 84%
    18:00 +11°C° 0 mm 3 m/s 753 mmHg 91%
    19:00 +10°C° 0 mm 2 m/s 753 mmHg 91%
    20:00 +10°C° 0 mm 2 m/s 753 mmHg 91%
    21:00 +9°C° 0 mm 2 m/s 753 mmHg 92%
    22:00 +9°C° 0 mm 2 m/s 753 mmHg 91%
    23:00 +9°C° 0 mm 2 m/s 753 mmHg 91%

    26 Februarie, Duminică

    Timp Temperatura Precipitaţii Vânt Presiune Umiditate
    00:00 +8°C° 0 mm 2 m/s 753 mmHg 90%
    01:00 +8°C° 0 mm 2 m/s 753 mmHg 90%
    02:00 +8°C° 0 mm 2 m/s 753 mmHg 90%
    03:00 +9°C° 0 mm 1 m/s 753 mmHg 90%
    04:00 +8°C° 0 mm 1 m/s 753 mmHg 90%
    05:00 +8°C° 0 mm 1 m/s 753 mmHg 90%
    06:00 +8°C° 0 mm 1 m/s 753 mmHg 90%
    07:00 +11°C° 0 mm 1 m/s 753 mmHg 83%
    08:00 +13°C° 0 mm 1 m/s 753 mmHg 75%
    09:00 +16°C° 0 mm 1 m/s 754 mmHg 68%
    10:00 +18°C° 0 mm 1 m/s 753 mmHg 65%
    11:00 +18°C° 0 mm 2 m/s 753 mmHg 61%
    12:00 +19°C° 0 mm 2 m/s 753 mmHg 58%
    13:00 +19°C° 0 mm 2 m/s 753 mmHg 59%
    14:00 +19°C° 0 mm 3 m/s 752 mmHg 60%
    15:00 +19°C° 0 mm 3 m/s 752 mmHg 61%
    16:00 +16°C° 0 mm 3 m/s 752 mmHg 70%
    17:00 +13°C° 0 mm 3 m/s 752 mmHg 79%
    18:00 +10°C° 0 mm 3 m/s 752 mmHg 88%
    19:00 +10°C° 0 mm 3 m/s 752 mmHg 88%
    20:00 +9°C° 0 mm 2 m/s 752 mmHg 88%
    21:00 +9°C° 0 mm 2 m/s 752 mmHg 88%
    22:00 +8°C° 0 mm 2 m/s 752 mmHg 88%
    23:00 +8°C° 0 mm 2 m/s 752 mmHg 87%

    27 Februarie, Luni

    Timp Temperatura Precipitaţii Vânt Presiune Umiditate
    00:00 +8°C° 0 mm 2 m/s 752 mmHg 86%
    01:00 +8°C° 0 mm 2 m/s 751 mmHg 85%
    02:00 +8°C° 0 mm 2 m/s 751 mmHg 84%
    03:00 +8°C° 0 mm 2 m/s 751 mmHg 82%
    04:00 +8°C° 0 mm 2 m/s 751 mmHg 81%
    05:00 +8°C° 0 mm 2 m/s 751 mmHg 80%
    06:00 +8°C° 0 mm 2 m/s 751 mmHg 79%
    07:00 +12°C° 0 mm 1 m/s 751 mmHg 69%
    08:00 +15°C° 0 mm 1 m/s 752 mmHg 60%
    09:00 +19°C° 0 mm 1 m/s 752 mmHg 51%
    10:00 +20°C° 0 mm 1 m/s 752 mmHg 48%
    11:00 +21°C° 0 mm 1 m/s 751 mmHg 46%
    12:00 +22°C° 0 mm 1 m/s 751 mmHg 43%
    13:00 +22°C° 0 mm 1 m/s 751 mmHg 46%
    14:00 +22°C° 0 mm 1 m/s 750 mmHg 48%
    15:00 +21°C° 0 mm 2 m/s 750 mmHg 51%
    16:00 +18°C° 0 mm 2 m/s 749 mmHg 62%
    17:00 +15°C° 0 mm 2 m/s 749 mmHg 73%
    18:00 +13°C° 0 mm 2 m/s 749 mmHg 83%
    19:00 +12°C° 0 mm 2 m/s 749 mmHg 83%
    20:00 +12°C° 0 mm 2 m/s 749 mmHg 83%
    21:00 +12°C° 0 mm 2 m/s 750 mmHg 82%
    22:00 +12°C° 0 mm 1 m/s 749 mmHg 80%
    23:00 +12°C° 0 mm 1 m/s 749 mmHg 78%
    Arată mai mult